Location: Arboyeti
(42.1122°N, 44.6017°E)
Time: 03:07:21
(UTC+00:00)

ISS - Pass Details

Date: 03 October 2021
Orbit: 417 x 423 km, 51.6° (Epoch: 28 October)

Event Time Altitude Azimuth Distance (km) Brightness Sun altitude
Rises 15:11:28 0° 307° (NW) 2,365 1.0 -6.7°
Reaches altitude 10° 15:13:42 10° 318° (NW) 1,501 -0.3 -7.1°
Maximum altitude 15:16:47 33° 24° (NNE) 734 -2.7 -7.7°
Enters shadow 15:19:40 11° 89° (E) 1,426 -1.8 -8.2°
